[[{"header":{"parameterUnit":"m.s-1","parameterCategory":1,"la1":30.2991,"la2":30.254,"lo1":-89.0895,"lo2":-89.0444,"dy":0.0017,"dx":0.0017,"nx":28,"ny":28,"refTime":"2023-07-21T03:00:00:Z","depth":0,"parameterNumber":2,"parameterNumberName":"U-component_of_WINDS"},"data":[0,0,0,0,0,0,0,0,0,0,0,0,0,0,0,0,0,0,0,0,0,0,0,0,0,0,0,0,0,0,0,0,0,0,0,0,0,0,0,0,0,0,0,0,0,0,0,0,0,0,0,0,0,0,0,0,0,0,1.6233,1.6235,0,1.6373,1.6375,1.6377,1.6403,1.6401,1.64,1.6399,1.6547,1.6552,1.6557,0,0,0,0,0,0,0,0,0,0,0,0,0,1.5989,1.5994,1.6233,1.6235,1.6236,1.6373,1.6375,1.6377,1.6403,1.6401,1.64,1.6399,1.6546,1.6552,1.6558,0,0,0,0,0,0,0,0,0,0,0,0,0,1.6109,1.5995,1.6233,1.6266,1.627,1.6373,1.6375,1.6378,1.6403,1.6401,1.64,1.6398,1.6544,1.6551,1.6558,1.664,0,0,1.6581,1.6585,0,0,0,0,0,0,0,0,1.6102,1.6118,1.6259,1.6263,1.6269,1.6369,1.6344,1.6466,1.6403,1.6353,1.6399,1.6397,1.649,1.6501,1.6532,1.6647,1.6653,1.6582,1.6587,1.659,1.6592,0,0,0,0,0,0,0,1.6094,1.6112,1.6289,1.6261,1.6267,1.6274,1.6289,1.6367,1.6429,1.6357,1.6359,1.6375,1.6492,1.6524,1.6535,1.6655,1.6582,1.6589,1.6593,1.6596,1.6842,1.6844,0,0,0,0,0,0,1.6079,1.6105,1.6284,1.6293,1.6179,1.628,1.6297,1.6338,1.6428,1.644,1.6376,1.6376,1.6512,1.6527,1.6541,1.664,1.659,1.6597,1.6601,1.684,1.6843,1.6845,0,0,0,0,0,0,1.6074,1.6095,1.6279,1.62,1.6224,1.6286,1.6332,1.6342,1.6374,1.6443,1.6455,1.6398,1.6512,1.653,1.6614,1.6646,1.66,1.6607,1.6838,1.6841,1.6844,1.6841,0,0,0,0,0,0,1.6067,1.6093,1.6124,1.62,1.6228,1.6349,1.6334,1.6346,1.6387,1.6387,1.6466,1.6478,1.6512,1.6603,1.6622,1.6656,1.6613,1.6835,1.6839,1.6843,1.6839,1.6844,1.6848,0,0,0,0,0,1.6058,1.6119,1.6125,1.6147,1.6267,1.6351,1.6366,1.6403,1.6389,1.6421,1.6465,1.6475,1.6639,1.6611,1.6633,1.6669,1.6833,1.6838,1.6842,1.6837,1.6843,1.6848,0,0,0,0,0,0,1.6047,1.613,1.6138,1.6225,1.628,1.6355,1.6396,1.6408,1.647,1.6468,1.6512,1.6529,1.6611,1.6649,1.6616,1.6752,1.6736,1.6745,1.6724,1.673,1.6735,1.6724,1.6619,0,0,0,0,0,1.6054,1.6113,1.6183,1.6253,1.6281,1.6333,1.6371,1.6394,1.6454,1.6478,1.6528,1.6587,1.6651,1.6693,1.6757,1.6844,1.6862,1.688,1.6885,1.6888,1.6896,1.6944,1.6952,1.686,1.686,1.686,0,0,1.607,1.6123,1.6158,1.6252,1.6298,1.6359,1.6353,1.6419,1.6465,1.6488,1.657,1.6609,1.6677,1.6763,1.6803,1.6797,1.6925,1.6894,1.6896,1.6902,1.6949,1.6958,1.6966,1.6863,1.6862,1.6862,0,0,1.6131,1.6177,1.6239,1.6285,1.6353,1.6388,1.6403,1.6475,1.6501,1.6584,1.6602,1.6658,1.6769,1.6816,1.6855,1.6932,1.6943,1.6951,1.6976,1.7022,1.7029,1.7036,1.7062,1.7071,1.6958,1.6958,1.6958,0,1.6143,1.6235,1.6271,1.6335,1.6375,1.6398,1.6461,1.6504,1.6591,1.6618,1.661,1.6748,1.6796,1.6892,1.6911,1.6942,1.696,1.6942,1.7025,1.7032,1.7039,1.7065,1.7075,1.6959,1.6959,1.6959,1.6959,0,1.6245,1.6309,1.6351,1.6432,1.6478,1.6541,1.6587,1.6629,1.6648,1.6683,1.6766,1.6824,1.6899,1.6924,1.6944,1.7023,1.7017,1.7016,1.7001,1.7048,1.7072,1.7083,1.6959,1.6959,1.6959,1.6959,0,0,1.6303,1.6401,1.6416,1.6453,1.6529,1.658,1.6644,1.6716,1.675,1.6809,1.6864,1.6956,1.6956,1.6999,1.7025,1.7065,1.7121,1.706,1.7062,1.7068,1.7211,1.721,1.7221,1.7129,1.7131,1.7133,1.7204,0,1.6372,1.6487,1.652,1.6617,1.6676,1.6697,1.6753,1.6807,1.6841,1.6897,1.6936,1.7,1.6995,1.7021,1.7062,1.7105,1.715,1.7101,1.7181,1.7183,1.7162,1.7234,1.7234,1.7299,1.7215,1.7216,1.7217,0,1.6468,1.6526,1.6628,1.6696,1.6722,1.6771,1.6839,1.6891,1.6952,1.6975,1.7022,1.7044,1.7112,1.7093,1.7187,1.7153,1.7188,1.7214,1.7217,1.7226,1.7203,1.7243,1.732,1.733,1.7233,1.7232,1.7231,0,1.6498,1.6603,1.6677,1.6707,1.6788,1.6823,1.6858,1.6917,1.6957,1.7017,1.7043,1.711,1.7147,1.7199,1.7237,1.722,1.7329,1.7313,1.7349,1.7348,1.7371,1.7369,1.7453,1.7394,1.7394,1.7394,1.7394,0,1.6571,1.6633,1.6691,1.6736,1.6806,1.6844,1.6912,1.6948,1.7,1.7054,1.7077,1.7127,1.7175,1.7232,1.7263,1.7336,1.7353,1.7373,1.738,1.737,1.7367,1.7393,1.7389,1.7397,1.7396,1.7395,1.7395,0,1.6617,1.6659,1.674,1.681,1.6829,1.6877,1.6936,1.6982,1.7016,1.7083,1.7101,1.7157,1.7224,1.7268,1.7354,1.7375,1.7454,1.7461,1.7433,1.7436,1.747,1.7466,1.7574,1.7589,1.752,1.7521,1.7521,0,1.666,1.6708,1.6782,1.6818,1.6853,1.6913,1.6953,1.6993,1.7034,1.7106,1.7142,1.7211,1.7267,1.7374,1.7422,1.7488,1.7496,1.7529,1.7506,1.7494,1.7495,1.7491,1.7496,1.7533,1.7533,1.7534,1.7534,0,1.6733,1.6751,1.6808,1.6872,1.6919,1.6972,1.7025,1.7053,1.7102,1.7147,1.7215,1.7259,1.7346,1.7413,1.7483,1.7521,1.7536,1.7541,1.7553,1.7543,1.7524,1.7533,1.7442,1.7538,1.7538,1.7538,1.7537,1.7537,1.6778,1.6821,1.6879,1.6941,1.6985,1.7033,1.7078,1.7118,1.7175,1.7248,1.7268,1.7338,1.7397,1.7492,1.7531,1.7587,1.7583,1.7601,1.7605,1.7608,1.7608,1.7515,1.76,1.76,1.76,1.76,1.76,0,1.6851,1.6889,1.6946,1.7018,1.7067,1.7075,1.7134,1.7174,1.7236,1.7289,1.7343,1.7421,1.7486,1.7539,1.7606,1.764,1.7649,1.7657,1.7654,1.7662,1.7608,1.7591,1.7649,1.7649,1.7649,1.7649,1.7648,1.7648,1.6894,1.6966,1.699,1.7084,1.7122,1.719,1.7222,1.7267,1.7309,1.7394,1.7448,1.7481,1.7534,1.7605,1.7665,1.7679,1.7702,1.7708,1.7724,1.7672,1.7666,1.7661,1.7645,1.7713,1.7713,1.7773,1.7774,1.7774]},{"header":{"parameterUnit":"m.s-1","parameterCategory":1,"la1":30.2991,"la2":30.254,"lo1":-89.0895,"lo2":-89.0444,"dy":0.0017,"dx":0.0017,"nx":28,"ny":28,"refTime":"2023-07-21T03:00:00:Z","depth":0,"parameterNumber":3,"parameterNumberName":"V-component_of_WINDS"},"data":[0,0,0,0,0,0,0,0,0,0,0,0,0,0,0,0,0,0,0,0,0,0,0,0,0,0,0,0,0,0,0,0,0,0,0,0,0,0,0,0,0,0,0,0,0,0,0,0,0,0,0,0,0,0,0,0,0,0,4.2236,4.2236,0,4.2256,4.2256,4.2256,4.2256,4.2256,4.2255,4.2255,4.2271,4.2272,4.2272,0,0,0,0,0,0,0,0,0,0,0,0,0,4.2191,4.2192,4.2236,4.2236,4.2237,4.2256,4.2256,4.2256,4.2256,4.2256,4.2255,4.2255,4.2271,4.2272,4.2272,0,0,0,0,0,0,0,0,0,0,0,0,0,4.2211,4.2192,4.2236,4.2239,4.2239,4.2256,4.2256,4.2256,4.2256,4.2256,4.2255,4.2255,4.2271,4.2272,4.2273,4.2286,0,0,4.2276,4.2276,0,0,0,0,0,0,0,0,4.2209,4.2212,4.2238,4.2239,4.2239,4.2253,4.2246,4.2266,4.2256,4.225,4.2255,4.2255,4.2265,4.2267,4.2271,4.2287,4.2288,4.2276,4.2276,4.2277,4.2277,0,0,0,0,0,0,0,4.2208,4.2211,4.2244,4.2239,4.2239,4.2237,4.2239,4.225,4.2259,4.225,4.225,4.2253,4.2265,4.227,4.2271,4.2288,4.2276,4.2276,4.2277,4.2277,4.2311,4.2311,0,0,0,0,0,0,4.2207,4.221,4.2243,4.2244,4.2223,4.2238,4.2241,4.2249,4.2259,4.226,4.2253,4.2253,4.2268,4.227,4.2272,4.2286,4.2277,4.2278,4.2278,4.2311,4.2311,4.2311,0,0,0,0,0,0,4.2206,4.221,4.2242,4.2227,4.2231,4.2239,4.2249,4.225,4.2254,4.2261,4.2262,4.2257,4.2268,4.227,4.2282,4.2286,4.2278,4.2279,4.231,4.2311,4.2311,4.2315,0,0,0,0,0,0,4.2205,4.221,4.2217,4.2228,4.2232,4.2254,4.2249,4.225,4.2257,4.2256,4.2265,4.2266,4.2268,4.228,4.2283,4.2288,4.228,4.231,4.231,4.2311,4.2315,4.2316,4.2317,0,0,0,0,0,4.2203,4.2218,4.2218,4.2221,4.2242,4.2255,4.2257,4.2261,4.2257,4.2263,4.2266,4.2266,4.2285,4.2282,4.2284,4.2289,4.231,4.231,4.2311,4.2314,4.2316,4.2317,0,0,0,0,0,0,4.2207,4.2219,4.2219,4.2238,4.2245,4.2255,4.2263,4.2263,4.227,4.227,4.2272,4.2274,4.2284,4.2288,4.2284,4.2301,4.2297,4.2298,4.2298,4.23,4.2301,4.2299,4.228,0,0,0,0,0,4.221,4.2222,4.2231,4.2246,4.225,4.2255,4.2261,4.2263,4.227,4.2273,4.2278,4.2283,4.229,4.2295,4.2302,4.2315,4.2315,4.2319,4.232,4.2321,4.2322,4.2325,4.2326,4.2313,4.2313,4.2313,0,0,4.2217,4.2224,4.2232,4.2247,4.2253,4.2262,4.2258,4.2269,4.2275,4.2274,4.2285,4.2288,4.2294,4.2305,4.231,4.2309,4.2325,4.2322,4.2322,4.2323,4.2326,4.2327,4.2328,4.2314,4.2314,4.2314,0,0,4.2233,4.2241,4.2253,4.2258,4.2267,4.227,4.2273,4.2282,4.2284,4.2295,4.2293,4.2299,4.2312,4.2316,4.2319,4.2331,4.233,4.2333,4.2338,4.2342,4.2343,4.2343,4.2346,4.2347,4.2334,4.2334,4.2334,0,4.2239,4.2255,4.2259,4.2269,4.2274,4.2274,4.2284,4.2288,4.2299,4.2301,4.2299,4.2313,4.2317,4.2327,4.233,4.2333,4.2334,4.2333,4.2342,4.2343,4.2344,4.2346,4.2347,4.2335,4.2335,4.2334,4.2334,0,4.2261,4.2271,4.2279,4.2289,4.2295,4.2305,4.2308,4.2313,4.2313,4.2315,4.2323,4.2328,4.2335,4.2337,4.2338,4.2346,4.2344,4.2342,4.2338,4.2346,4.2347,4.2348,4.2335,4.2335,4.2335,4.2335,0,0,4.2282,4.2292,4.2294,4.2297,4.2305,4.2312,4.232,4.2327,4.233,4.2335,4.234,4.235,4.2347,4.235,4.2351,4.2353,4.2359,4.2351,4.2351,4.2351,4.2366,4.2367,4.2368,4.2358,4.2358,4.2358,4.2365,0,4.2297,4.2314,4.2315,4.2329,4.2336,4.2334,4.234,4.2344,4.2345,4.235,4.235,4.2356,4.2353,4.2355,4.2358,4.2358,4.2362,4.2358,4.2361,4.2361,4.2359,4.2369,4.2371,4.2377,4.2366,4.2366,4.2366,0,4.2318,4.2324,4.2338,4.2342,4.2345,4.2351,4.2355,4.2361,4.2363,4.2364,4.2366,4.2365,4.237,4.2365,4.2371,4.2367,4.2368,4.2368,4.2368,4.2368,4.2364,4.2368,4.2379,4.2379,4.2367,4.2367,4.2367,0,4.2329,4.2341,4.235,4.2353,4.2358,4.2361,4.2363,4.2366,4.2368,4.2371,4.2372,4.2376,4.2377,4.2378,4.2377,4.2374,4.2381,4.2378,4.238,4.238,4.2382,4.2382,4.2392,4.2384,4.2384,4.2384,4.2384,0,4.2346,4.2354,4.2354,4.236,4.2368,4.2368,4.2375,4.2376,4.2377,4.2381,4.2379,4.2382,4.238,4.2382,4.2381,4.2384,4.2385,4.2384,4.2383,4.2384,4.2383,4.2384,4.2383,4.2384,4.2384,4.2384,4.2384,0,4.236,4.2361,4.237,4.2373,4.2374,4.2379,4.238,4.2384,4.2384,4.2388,4.2389,4.2388,4.239,4.2389,4.2391,4.239,4.2393,4.2393,4.2393,4.2392,4.2394,4.2394,4.2405,4.2405,4.2397,4.2398,4.2398,0,4.2369,4.2375,4.2378,4.2381,4.2383,4.2387,4.2389,4.2389,4.2391,4.2392,4.2395,4.2397,4.2398,4.2401,4.24,4.24,4.2399,4.2402,4.2399,4.2398,4.2397,4.2396,4.2396,4.2403,4.2403,4.2403,4.2403,0,4.2386,4.2385,4.239,4.2393,4.2396,4.2398,4.24,4.2402,4.2401,4.2402,4.2405,4.2406,4.2407,4.2408,4.2408,4.2407,4.2404,4.2404,4.2405,4.2405,4.2404,4.2403,4.2394,4.2404,4.2404,4.2404,4.2404,4.2404,4.2397,4.2401,4.2402,4.2406,4.2407,4.2408,4.2411,4.2411,4.2413,4.2415,4.2413,4.2415,4.2414,4.2414,4.2413,4.2413,4.2411,4.2412,4.2412,4.2412,4.2412,4.2404,4.2413,4.2413,4.2413,4.2413,4.2413,0,4.2411,4.2412,4.2415,4.2418,4.2419,4.2417,4.2418,4.2419,4.2421,4.2421,4.2422,4.2423,4.2423,4.2421,4.242,4.242,4.2419,4.242,4.242,4.2419,4.2414,4.2413,4.2421,4.2421,4.2421,4.2421,4.2421,4.2421,4.2419,4.2425,4.2424,4.2428,4.2428,4.2431,4.2431,4.2431,4.2431,4.2432,4.2432,4.2431,4.2429,4.2428,4.2427,4.2426,4.2425,4.2427,4.2425,4.2421,4.242,4.2419,4.2418,4.2427,4.2427,4.243,4.243,4.243]}]]